[[[{"header":{"parameterUnit":"kt","parameterCategory":2,"dx":1,"dy":1,"la1":30.253999710083008,"la2":30.299108505249023,"lo1":-89.0895004272461,"lo2":-89.04439544677734,"nx":28,"ny":28,"refTime":"2022-10-18T21:00:00:Z","depth":0,"parameterNumber":1,"parameterNumberName":"U-component_of_WINDS"},"data":[-1.055,-1.0543,-1.0567,-1.0569,-1.0592,-1.0597,-1.0607,-1.0622,-1.064,-1.0649,-1.0658,-1.0681,-1.0709,-1.0725,-1.0736,-1.0746,-1.0748,-1.0728,-1.0743,-1.0814,-1.0825,-1.0836,-1.0839,-1.0728,-1.0728,-1.0664,-1.0664,-1.0663,-1.06,-1.0622,-1.063,-1.0655,-1.0663,-1.0697,-1.072,-1.0723,-1.0727,-1.075,-1.076,-1.077,-1.0781,-1.0816,-1.083,-1.0826,-1.0842,-1.0828,-1.0827,-1.0831,-1.0909,-1.0912,-1.0814,-1.0814,-1.0814,-1.0814,-1.0814,-1.0814,-1.0696,-1.069,-1.072,-1.073,-1.0749,-1.0765,-1.0764,-1.0794,-1.0802,-1.0821,-1.0849,-1.0853,-1.088,-1.0909,-1.0925,-1.0929,-1.0949,-1.094,-1.0938,-1.0934,-1.0927,-1.1012,-1.0932,-1.0933,-1.0933,-1.0933,-1.0934,0,-1.0773,-1.0794,-1.0804,-1.0822,-1.083,-1.0846,-1.0865,-1.0865,-1.0918,-1.0922,-1.0931,-1.094,-1.0958,-1.0968,-1.0987,-1.1006,-1.1041,-1.1048,-1.1042,-1.1027,-1.1011,-1.1018,-1.1141,-1.105,-1.1051,-1.1052,-1.1052,-1.1053,-1.087,-1.0861,-1.0905,-1.0908,-1.0925,-1.0931,-1.0939,-1.0987,-1.0993,-1.1023,-1.1015,-1.1027,-1.1039,-1.1048,-1.1082,-1.1095,-1.1112,-1.1074,-1.1114,-1.1101,-1.1109,-1.1108,-1.1107,-1.1064,-1.1063,-1.1062,-1.1061,0,-1.0921,-1.0962,-1.0957,-1.1002,-1.1012,-1.1001,-1.1038,-1.1035,-1.1064,-1.1063,-1.1066,-1.1111,-1.1119,-1.116,-1.1177,-1.1197,-1.1176,-1.1194,-1.1167,-1.1172,-1.1141,-1.1142,-1.1036,-1.1024,-1.1142,-1.1141,-1.114,0,-1.1019,-1.1006,-1.1068,-1.1063,-1.105,-1.1099,-1.1084,-1.1108,-1.1133,-1.1133,-1.1181,-1.1179,-1.1232,-1.1236,-1.1267,-1.1258,-1.1262,-1.1276,-1.1284,-1.1271,-1.1268,-1.1273,-1.1277,-1.1305,-1.1305,-1.1306,-1.1306,0,-1.1094,-1.1113,-1.1105,-1.1116,-1.1162,-1.1157,-1.1176,-1.1204,-1.1212,-1.1229,-1.1234,-1.1249,-1.1257,-1.1268,-1.1307,-1.1333,-1.1298,-1.1341,-1.1312,-1.1311,-1.1301,-1.13,-1.1198,-1.1307,-1.1307,-1.1307,-1.1307,0,-1.1179,-1.1196,-1.1179,-1.1218,-1.1221,-1.1216,-1.1235,-1.1241,-1.1267,-1.1287,-1.13,-1.1336,-1.1333,-1.1372,-1.1368,-1.139,-1.1394,-1.1409,-1.1408,-1.1408,-1.145,-1.1384,-1.1285,-1.1275,-1.141,-1.1411,-1.1412,0,-1.1252,-1.1247,-1.1289,-1.1272,-1.1275,-1.1329,-1.1324,-1.1347,-1.1372,-1.1378,-1.1407,-1.1413,-1.1451,-1.1458,-1.1451,-1.148,-1.1452,-1.1485,-1.149,-1.149,-1.1479,-1.1389,-1.1362,-1.1303,-1.1424,-1.1423,-1.1422,0,-1.1314,-1.1371,-1.1365,-1.1379,-1.1418,-1.1421,-1.1416,-1.1434,-1.1435,-1.1456,-1.1451,-1.1462,-1.1491,-1.1503,-1.1534,-1.1524,-1.1472,-1.1556,-1.1557,-1.1538,-1.1434,-1.1409,-1.1399,-1.1495,-1.1494,-1.1493,-1.1431,0,-1.1429,-1.1433,-1.1419,-1.145,-1.1459,-1.1452,-1.1496,-1.15,-1.1529,-1.1557,-1.1552,-1.1582,-1.1598,-1.1599,-1.1627,-1.1592,-1.1604,-1.1635,-1.1674,-1.1615,-1.1596,-1.1588,-1.17,-1.1701,-1.1703,-1.1704,0,0,-1.1488,-1.1494,-1.1541,-1.1539,-1.1549,-1.1605,-1.1592,-1.1609,-1.1641,-1.1647,-1.167,-1.1688,-1.1711,-1.17,-1.1685,-1.1693,-1.169,-1.1709,-1.1644,-1.1637,-1.163,-1.1609,-1.16,-1.1706,-1.1706,-1.1707,-1.1707,0,-1.1539,-1.1563,-1.1551,-1.1571,-1.1602,-1.1632,-1.1629,-1.167,-1.1686,-1.1684,-1.1728,-1.1731,-1.1745,-1.1762,-1.1773,-1.1712,-1.1745,-1.1714,-1.1666,-1.1654,-1.1646,-1.1638,-1.1615,-1.1607,-1.171,-1.171,-1.171,0,-1.1607,-1.1637,-1.1637,-1.1665,-1.1685,-1.1688,-1.1741,-1.1742,-1.1743,-1.1803,-1.1799,-1.1821,-1.1848,-1.1834,-1.1829,-1.1849,-1.1792,-1.1818,-1.1812,-1.1812,-1.1803,-1.1792,-1.1783,-1.1903,-1.1903,-1.1904,0,0,-1.1644,-1.1649,-1.1696,-1.1679,-1.1689,-1.1734,-1.174,-1.177,-1.1794,-1.1804,-1.1832,-1.1854,-1.1862,-1.1867,-1.1877,-1.1855,-1.1863,-1.184,-1.1831,-1.1824,-1.1819,-1.1808,-1.1798,-1.1906,-1.1906,-1.1906,0,0,-1.1662,-1.1717,-1.1743,-1.1729,-1.1751,-1.1796,-1.1783,-1.1815,-1.1829,-1.1835,-1.1885,-1.1893,-1.188,-1.19,-1.192,-1.1891,-1.193,-1.1927,-1.1879,-1.1868,-1.1859,-1.1854,-1.1977,0,0,0,0,0,-1.1737,-1.171,-1.1733,-1.1738,-1.1773,-1.1783,-1.1788,-1.1829,-1.1856,-1.1845,-1.1874,-1.1909,-1.1921,-1.1939,-1.1942,-1.1919,-1.193,-1.1925,-1.1921,-1.1855,-1.1843,-1.1833,0,0,0,0,0,0,-1.174,-1.1745,-1.1734,-1.1777,-1.1785,-1.1785,-1.1839,-1.1849,-1.1858,-1.1865,-1.1903,-1.1911,-1.1945,-1.1941,-1.1943,-1.192,-1.1977,-1.1928,-1.1924,-1.1921,-1.1851,-1.1841,-1.1833,0,0,0,0,0,-1.1741,-1.1746,-1.1792,-1.1778,-1.1785,-1.1833,-1.184,-1.1849,-1.1857,-1.1902,-1.1911,-1.1887,-1.1944,-1.1948,-1.1942,-1.1918,-1.1975,-1.1976,-1.1926,-1.1923,-1.192,-1.1846,0,0,0,0,0,0,-1.1743,-1.1754,-1.1795,-1.1798,-1.1791,-1.1834,-1.1843,-1.1849,-1.1894,-1.1903,-1.1889,-1.1894,-1.1942,-1.1946,-1.1949,-1.1915,-1.1974,-1.1975,-1.1975,-1.1923,-1.1921,-1.1919,0,0,0,0,0,0,-1.1752,-1.1757,-1.1797,-1.1811,-1.1817,-1.1835,-1.1842,-1.1843,-1.1894,-1.1878,-1.1884,-1.189,-1.1937,-1.1944,-1.1947,-1.1947,-1.1974,-1.1974,-1.1975,-1.1975,-1.1922,-1.192,0,0,0,0,0,0,-1.1755,-1.1759,-1.1811,-1.1815,-1.182,-1.1865,-1.1836,-1.187,-1.1908,-1.1876,-1.1912,-1.1914,-1.1934,-1.1938,-1.1945,-1.1943,-1.1946,-1.1974,-1.1974,-1.1974,-1.1975,0,0,0,0,0,0,0,-1.1757,-1.172,-1.1773,-1.1818,-1.1823,-1.1833,-1.1834,-1.1835,-1.1908,-1.191,-1.1912,-1.1913,-1.197,-1.1971,-1.1972,-1.194,0,0,-1.1974,-1.1974,0,0,0,0,0,0,0,0,-1.1719,-1.1719,-1.1773,-1.1773,-1.1774,-1.1833,-1.1834,-1.1835,-1.1908,-1.191,-1.1911,-1.1912,-1.197,-1.1971,-1.1971,0,0,0,0,0,0,0,0,0,0,0,0,0,0,0,-1.1773,-1.1773,0,-1.1833,-1.1834,-1.1834,-1.1908,-1.191,-1.1911,-1.1912,-1.197,-1.1971,-1.1971,0,0,0,0,0,0,0,0,0,0,0,0,0,0,0,0,0,0,0,0,0,0,0,0,0,0,0,0,0,0,0,0,0,0,0,0,0,0,0,0,0,0,0,0,0,0,0,0,0,0,0,0,0,0,0,0,0,0,0,0,0,0,0,0,0,0,0,0,0]}],[{"header":{"parameterUnit":"kt","parameterCategory":2,"dx":1,"dy":1,"la1":30.253999710083008,"la2":30.299108505249023,"lo1":-89.0895004272461,"lo2":-89.04439544677734,"nx":28,"ny":28,"refTime":"2022-10-18T21:00:00:Z","depth":0,"parameterNumber":2,"parameterNumberName":"V-component_of_WINDS"},"data":[-2.3749,-2.3764,-2.3746,-2.3756,-2.3742,-2.3745,-2.3741,-2.3734,-2.3723,-2.3726,-2.3725,-2.371,-2.3693,-2.3688,-2.3686,-2.3679,-2.3679,-2.3698,-2.3687,-2.3618,-2.3608,-2.3597,-2.3592,-2.3699,-2.3699,-2.376,-2.376,-2.3761,-2.3702,-2.3688,-2.3687,-2.3675,-2.3675,-2.3646,-2.3634,-2.3636,-2.364,-2.3628,-2.3625,-2.3627,-2.3626,-2.3602,-2.3598,-2.3606,-2.3592,-2.3606,-2.3605,-2.3602,-2.3529,-2.3523,-2.3617,-2.3617,-2.3617,-2.3617,-2.3617,-2.3617,-2.3612,-2.3621,-2.3603,-2.3602,-2.3591,-2.3583,-2.3589,-2.3569,-2.3568,-2.3561,-2.354,-2.3545,-2.3529,-2.3515,-2.3506,-2.351,-2.3491,-2.3501,-2.3503,-2.3506,-2.3511,-2.3426,-2.3509,-2.3508,-2.3508,-2.3508,-2.3508,0,-2.3539,-2.3523,-2.3521,-2.3514,-2.3512,-2.3505,-2.3496,-2.3499,-2.3459,-2.3461,-2.3461,-2.3459,-2.3454,-2.3453,-2.3446,-2.3434,-2.3404,-2.3399,-2.3406,-2.3415,-2.3426,-2.342,-2.33,-2.3396,-2.3395,-2.3395,-2.3394,-2.3394,-2.3446,-2.346,-2.3431,-2.3432,-2.3421,-2.3424,-2.3422,-2.3385,-2.3385,-2.3368,-2.3378,-2.3377,-2.3373,-2.3378,-2.3354,-2.3351,-2.3336,-2.3375,-2.3335,-2.3345,-2.3336,-2.3335,-2.3336,-2.3383,-2.3384,-2.3385,-2.3386,0,-2.3396,-2.3364,-2.3379,-2.3349,-2.3342,-2.3358,-2.3332,-2.3341,-2.332,-2.3329,-2.3329,-2.3295,-2.3297,-2.3266,-2.3262,-2.3245,-2.3274,-2.3259,-2.3279,-2.3274,-2.3305,-2.3302,-2.3412,-2.3424,-2.3314,-2.3315,-2.3316,0,-2.3303,-2.3322,-2.3275,-2.3285,-2.3305,-2.3267,-2.3288,-2.3272,-2.3256,-2.3263,-2.3223,-2.323,-2.3189,-2.3192,-2.3168,-2.3186,-2.3185,-2.3173,-2.3167,-2.3176,-2.3178,-2.3175,-2.3169,-2.3151,-2.3151,-2.315,-2.315,0,-2.3226,-2.3223,-2.3239,-2.3233,-2.3202,-2.3211,-2.3199,-2.3181,-2.3179,-2.3172,-2.317,-2.3165,-2.3162,-2.3159,-2.3128,-2.3102,-2.3149,-2.3107,-2.3137,-2.3138,-2.3148,-2.3147,-2.3253,-2.3149,-2.3149,-2.3149,-2.3149,0,-2.3146,-2.3138,-2.3167,-2.3139,-2.314,-2.3151,-2.3142,-2.3145,-2.3128,-2.3113,-2.3107,-2.3076,-2.3089,-2.305,-2.3067,-2.3042,-2.3042,-2.3031,-2.3033,-2.3031,-2.2988,-2.3051,-2.3155,-2.3165,-2.3032,-2.3031,-2.303,0,-2.3066,-2.3086,-2.3052,-2.308,-2.3085,-2.3038,-2.305,-2.3036,-2.3017,-2.3019,-2.2998,-2.3,-2.2964,-2.296,-2.2973,-2.2951,-2.2984,-2.2946,-2.295,-2.2951,-2.2955,-2.3051,-2.3073,-2.3136,-2.3017,-2.3018,-2.3019,0,-2.2999,-2.296,-2.2967,-2.2958,-2.2933,-2.2937,-2.2951,-2.2943,-2.2946,-2.2935,-2.2946,-2.2949,-2.2922,-2.2916,-2.289,-2.2905,-2.2961,-2.2873,-2.2872,-2.289,-2.3008,-2.3029,-2.304,-2.294,-2.2942,-2.2943,-2.3009,0,-2.2884,-2.289,-2.2908,-2.289,-2.2888,-2.2903,-2.2867,-2.287,-2.2844,-2.2823,-2.2838,-2.2818,-2.2812,-2.2816,-2.2791,-2.2835,-2.2822,-2.2793,-2.2752,-2.2815,-2.2836,-2.2844,-2.2724,-2.2722,-2.2721,-2.272,0,0,-2.2815,-2.2821,-2.2783,-2.2793,-2.2789,-2.2739,-2.2759,-2.2749,-2.273,-2.2728,-2.2705,-2.2706,-2.2691,-2.2713,-2.273,-2.2728,-2.2732,-2.2711,-2.2785,-2.2793,-2.28,-2.2822,-2.2832,-2.2718,-2.2718,-2.2717,-2.2717,0,-2.2765,-2.2749,-2.2768,-2.2756,-2.2736,-2.2711,-2.2716,-2.2687,-2.2674,-2.2689,-2.2647,-2.2653,-2.2654,-2.2643,-2.2638,-2.2708,-2.2677,-2.2709,-2.2758,-2.2775,-2.2784,-2.2791,-2.2816,-2.2825,-2.2714,-2.2714,-2.2714,0,-2.2692,-2.267,-2.2675,-2.2662,-2.2648,-2.2654,-2.2601,-2.261,-2.2614,-2.2559,-2.2574,-2.2558,-2.2541,-2.2566,-2.2577,-2.2556,-2.2628,-2.2599,-2.2605,-2.2605,-2.262,-2.2631,-2.2641,-2.2512,-2.2512,-2.2511,0,0,-2.2653,-2.2658,-2.2622,-2.2648,-2.2642,-2.2606,-2.2605,-2.2579,-2.2564,-2.2558,-2.2536,-2.2523,-2.2523,-2.2525,-2.2523,-2.2557,-2.255,-2.2575,-2.2585,-2.2593,-2.2597,-2.2614,-2.2625,-2.2509,-2.2509,-2.2509,0,0,-2.2635,-2.2594,-2.257,-2.2596,-2.2582,-2.2549,-2.2566,-2.2537,-2.2531,-2.2525,-2.2482,-2.2477,-2.25,-2.2486,-2.2462,-2.2508,-2.2468,-2.2473,-2.2516,-2.2527,-2.2536,-2.2539,-2.2405,0,0,0,0,0,-2.2564,-2.2599,-2.2578,-2.2576,-2.2559,-2.2561,-2.2558,-2.2522,-2.2494,-2.2509,-2.2487,-2.2453,-2.2464,-2.2442,-2.2442,-2.2469,-2.2482,-2.2487,-2.2491,-2.2554,-2.2567,-2.2577,0,0,0,0,0,0,-2.2563,-2.2562,-2.2577,-2.2545,-2.2541,-2.2559,-2.2504,-2.2495,-2.2492,-2.2485,-2.2458,-2.2452,-2.2422,-2.2439,-2.244,-2.2466,-2.2405,-2.2484,-2.2488,-2.2492,-2.2559,-2.2569,-2.2578,0,0,0,0,0,-2.2562,-2.2561,-2.2542,-2.2544,-2.2541,-2.2502,-2.2502,-2.2494,-2.2491,-2.2456,-2.2448,-2.2465,-2.2424,-2.2422,-2.2439,-2.2467,-2.2404,-2.2405,-2.2486,-2.249,-2.2493,-2.2564,0,0,0,0,0,0,-2.2562,-2.2554,-2.254,-2.2538,-2.2528,-2.25,-2.2494,-2.2494,-2.2461,-2.2454,-2.246,-2.2455,-2.2426,-2.2424,-2.2422,-2.2469,-2.2404,-2.2404,-2.2404,-2.2489,-2.2491,-2.2494,0,0,0,0,0,0,-2.2555,-2.2553,-2.2539,-2.252,-2.2515,-2.2499,-2.2493,-2.2503,-2.2462,-2.2467,-2.2462,-2.2458,-2.2428,-2.2425,-2.2424,-2.2441,-2.2404,-2.2404,-2.2404,-2.2404,-2.2491,-2.2493,0,0,0,0,0,0,-2.2553,-2.2551,-2.252,-2.2517,-2.2512,-2.2482,-2.2507,-2.2491,-2.2445,-2.2469,-2.244,-2.2438,-2.243,-2.2428,-2.2425,-2.2443,-2.2441,-2.2404,-2.2404,-2.2404,-2.2404,0,0,0,0,0,0,0,-2.2552,-2.2572,-2.2555,-2.2514,-2.251,-2.2515,-2.2514,-2.2514,-2.2444,-2.2442,-2.244,-2.2439,-2.2402,-2.2402,-2.2402,-2.2445,0,0,-2.2404,-2.2404,0,0,0,0,0,0,0,0,-2.2572,-2.2572,-2.2554,-2.2554,-2.2553,-2.2515,-2.2514,-2.2514,-2.2444,-2.2442,-2.2441,-2.2439,-2.2402,-2.2402,-2.2402,0,0,0,0,0,0,0,0,0,0,0,0,0,0,0,-2.2554,-2.2554,0,-2.2515,-2.2514,-2.2514,-2.2444,-2.2443,-2.2441,-2.244,-2.2402,-2.2402,-2.2402,0,0,0,0,0,0,0,0,0,0,0,0,0,0,0,0,0,0,0,0,0,0,0,0,0,0,0,0,0,0,0,0,0,0,0,0,0,0,0,0,0,0,0,0,0,0,0,0,0,0,0,0,0,0,0,0,0,0,0,0,0,0,0,0,0,0,0,0,0]}]]]